Location: Newark
(53.3503°N, 9.6158°W)
Time: 00:40:19
(UTC+00:00)

Envisat - Pass Details

Date: 25 October 2019
Orbit: 764 x 766 km, 98.1° (Epoch: 13 November)

Event Time Altitude Azimuth Distance (km) Brightness Sun altitude
Rises 19:25:42 0° 193° (SSW) 3,223 6.3 -19.2°
Reaches altitude 10° 19:28:14 10° 204° (SSW) 2,301 5.7 -19.5°
Maximum altitude 19:32:44 31° 266° (W) 1,317 4.9 -20.2°
Drops below altitude 10° 19:37:15 10° 329° (NNW) 2,316 6.0 -20.9°
Sets 19:39:50 0° 339° (NNW) 3,247 6.6 -21.3°
